Location: Unspecified
(0.0000°N, 0.0000°E)
Time: 19:49:27
(UTC+00:00)

Vanguard 1 Rocket - Pass Details

Date: 24 March 2018
Orbit: 649 x 4227 km, 34.3° (Epoch: 16 November)

Event Time Altitude Azimuth Distance (km) Brightness Sun altitude
Rises 12:28:28 0° 254° (WSW) 3,989 10.8 84.3°
Reaches altitude 10° 12:32:13 10° 268° (W) 2,604 10.0 83.3°
Maximum altitude 12:36:38 23° 319° (NW) 1,529 9.0 82.3°
Drops below altitude 10° 12:40:12 10° 13° (NNE) 2,055 9.4 81.4°
Sets 12:42:46 0° 30° (NNE) 2,944 10.0 80.8°
